This demonstration page uses our WeatherBlox Daily Observations layout. Learn more.

Left ArrowRight Arrow

36.19886, -115.1175

Hourly Observations for August 20, 2020

Temp ( °F °C ) Dew Point ( °F °C ) Humidity (%) Winds ( mph kmh ) Pressure ( in mb ) Visibility ( mi km ) Precip ( " mm )
12:53 am 00:53 Clear 100 37.8 44 6.7 15 15 NW 15 24 29.73 1007 10 16.0934 0 0
1:53 am 01:53 Clear 98 36.7 44 6.7 16 16 W 9 15 29.73 1007 10 16.0934 0 0
2:53 am 02:53 Clear 96 35.6 45 7.2 17 17 Calm 29.73 1007 10 16.0934 0 0
3:53 am 03:53 Clear 94 34.4 44 6.7 18 18 Calm 29.74 1007 10 16.0934 0 0
4:53 am 04:53 Clear 92 33.3 44 6.7 19 19 WNW 8 13 29.74 1007 10 16.0934 0 0
5:53 am 05:53 Clear 89 31.7 44 6.7 21 21 NW 10 17 29.76 1008 10 16.0934 0 0
6:53 am 06:53 Sunny 90 32.2 43 6.1 19 19 NW 10 17 29.77 1008 10 16.0934 0 0
7:53 am 07:53 Sunny 94 34.4 44 6.7 18 18 NNW 8 13 29.77 1008 10 16.0934 0 0
8:53 am 08:53 Sunny 99 37.2 44 6.7 15 15 W 5 7 29.78 1008 10 16.0934 0 0
9:53 am 09:53 Sunny 101 38.3 47 8.3 16 16 SW 5 7 29.77 1008 10 16.0934 0 0
10:53 am 10:53 Sunny 105 40.6 45 7.2 13 13 SE 3 6 29.75 1008 10 16.0934 0 0
11:53 am 11:53 Sunny 108 42.2 44 6.7 12 12 ESE 5 7 29.74 1007 10 16.0934 0 0
12:53 pm 12:53 Sunny 109 42.8 43 6.1 11 11 Calm 29.71 1006 10 16.0934 0 0
1:53 pm 13:53 Sunny 111 43.9 42 5.6 10 10 VRB 5 7 29.68 1005 10 16.0934 0 0
2:53 pm 14:53 Sunny 113 45 38 3.3 8 8 SW 10 17 29.65 1004 10 16.0934 0 0
3:53 pm 15:53 Sunny 113 45 36 2.2 7 7 SW 14 22 29.63 1004 10 16.0934 0 0
4:53 pm 16:53 Sunny 112 44.4 38 3.3 8 8 SW 17 28 29.62 1003 10 16.0934 0 0
5:53 pm 17:53 Sunny 112 44.4 36 2.2 7 7 SW 17 28 29.61 1003 10 16.0934 0 0
6:53 pm 18:53 Sunny 110 43.3 34 1.1 7 7 SW 13 20 29.61 1003 10 16.0934 0 0
7:53 pm 19:53 Clear 107 41.7 35 1.7 8 8 WSW 10 17 29.62 1003 10 16.0934 0 0
8:53 pm 20:53 Clear 105 40.6 35 1.7 9 9 SW 7 11 29.65 1004 10 16.0934 0 0
9:53 pm 21:53 Clear 100 37.8 37 2.8 11 11 SW 5 7 29.66 1004 10 16.0934 0 0
10:53 pm 22:53 Clear 99 37.2 37 2.8 12 12 Calm 29.66 1005 10 16.0934 0 0
11:53 pm 23:53 Clear 96 35.6 39 3.9 14 14 Calm 29.67 1005 10 16.0934 0 0

Powered by AerisWeather